Theta_e
344 345 344 344 343 343 344 345 346 347 347 348 347 347 347 346 346 346 346 346 346 347 347 348 348 349 349 347 347 345 347 344 336 332 333 334 334 334 335 336 338 342 344 345 346 346 345 344 344 344 344 345 345 344 344 345 344 344 343 343 342 342 342 342 340 339 340 343 344 345 345 345 345 345 346 346 345 345 344 345 343 342 342 341 342
343 344 344 344 345 345 346 347 348 348 347 347 347 347 347 347 347 346 346 346 346 347 347 348 348 348 348 347 347 346 346 346 339 334 334 333 333 333 332 333 334 336 339 342 343 344 344 344 344 344 344 345 345 345 344 345 345 344 344 343 342 342 343 341 341 341 342 345 346 346 345 345 345 345 346 346 346 346 345 345 344 343 342 341 341
343 343 343 344 346 348 348 349 348 348 348 348 347 348 348 347 348 348 348 347 346 346 347 347 348 348 348 347 347 346 346 347 343 338 336 336 336 335 334 334 333 334 336 338 340 341 342 343 344 345 345 346 346 345 344 344 344 343 343 342 342 343 344 343 342 343 345 346 346 346 346 345 346 346 346 346 346 346 345 345 343 343 342 341 341
345 345 345 346 347 349 349 348 348 349 349 348 348 348 348 348 349 349 348 347 346 346 346 347 347 347 347 347 347 346 346 347 346 341 338 337 337 337 337 336 335 336 335 335 336 336 338 339 340 342 342 344 345 344 344 344 343 342 342 343 343 344 343 343 344 344 345 346 346 346 346 345 346 345 346 346 345 345 344 344 344 343 342 341 341
347 347 348 348 348 349 348 348 349 349 349 349 348 347 348 349 349 349 348 347 346 346 346 347 346 346 347 347 347 347 347 346 347 345 341 338 338 338 338 338 338 337 337 336 335 335 335 335 336 337 337 339 341 342 343 343 343 343 343 344 343 344 343 344 345 345 346 346 346 346 345 345 345 345 345 346 346 345 344 344 344 343 342 341 340
349 348 348 348 348 348 347 347 348 349 349 349 348 348 348 349 349 349 349 348 347 347 347 347 346 345 346 347 347 347 347 347 347 346 344 340 339 338 338 339 339 338 338 338 338 337 338 338 337 337 337 338 340 341 343 344 344 345 345 345 345 345 346 347 347 346 346 346 345 346 345 344 345 345 345 345 345 345 344 345 344 343 343 342 340
349 349 348 347 347 347 347 347 349 349 349 349 349 349 349 349 349 349 350 348 348 347 347 346 345 344 345 346 347 347 347 347 346 346 345 344 342 340 340 339 339 339 339 339 339 339 339 339 339 340 340 340 340 342 344 345 345 345 346 345 345 346 347 347 347 346 345 345 345 345 345 344 344 344 344 345 344 344 345 344 344 343 342 342 340
350 349 348 347 347 347 348 348 348 349 350 350 350 350 350 349 349 350 350 349 348 347 346 344 343 343 344 345 346 347 347 347 346 346 346 346 344 343 342 341 341 340 341 340 340 341 340 340 341 340 341 341 341 341 341 343 344 344 345 345 346 346 346 346 346 345 345 345 344 344 344 343 343 343 343 343 343 343 344 344 344 344 342 342 341
349 349 348 348 348 348 349 349 348 349 350 350 350 350 349 349 349 349 349 348 348 346 345 343 342 343 344 345 346 346 346 346 347 346 346 346 346 345 344 344 343 343 343 343 343 343 343 343 343 342 342 342 342 340 340 339 340 341 342 343 344 345 345 345 345 345 345 344 344 343 343 342 342 342 342 342 343 343 343 343 343 343 343 342 342
348 349 349 349 348 349 349 349 349 349 349 349 349 350 349 348 348 349 349 348 347 346 344 342 342 343 343 344 346 346 346 346 346 346 346 346 346 345 345 344 345 345 344 344 345 345 345 345 345 345 345 344 343 343 342 340 339 339 340 341 342 342 343 343 344 344 345 344 343 343 342 342 342 340 341 341 341 342 343 343 342 342 343 342 341
348 348 349 349 350 350 349 350 351 350 349 349 349 350 350 350 349 349 348 347 346 345 344 342 342 343 344 344 345 345 346 346 346 346 346 345 346 346 346 345 345 345 345 345 345 345 345 345 346 346 346 345 345 345 344 343 341 341 341 341 341 341 341 341 343 343 343 344 343 342 342 340 339 337 336 336 336 337 339 340 341 341 342 342 340
349 350 350 350 350 350 350 351 351 351 349 348 350 351 352 352 351 350 349 347 346 345 345 343 343 343 345 345 345 345 346 345 346 346 346 345 345 345 345 345 345 345 345 345 345 345 345 345 345 346 346 345 346 344 344 343 343 342 341 342 342 342 341 341 344 344 343 343 342 339 338 337 335 333 332 332 331 330 332 334 337 339 339 340 340
351 352 351 351 351 351 350 351 351 350 349 349 350 352 352 352 352 351 349 348 346 345 345 344 343 344 345 345 344 344 345 346 345 345 346 345 346 346 345 345 344 344 344 345 345 345 345 345 345 345 344 344 344 344 343 343 342 342 343 343 344 344 343 344 345 345 344 343 340 335 334 335 333 331 329 329 327 326 326 328 330 333 335 336 338
353 352 351 350 351 351 351 351 350 349 349 348 350 351 351 352 352 351 349 347 345 344 345 344 343 343 343 343 345 345 344 344 344 345 346 346 346 347 346 345 345 344 344 344 344 344 344 344 344 344 344 344 343 343 344 343 343 343 343 344 344 344 345 345 345 345 345 342 340 336 332 331 330 328 327 326 325 324 323 324 324 326 328 330 332
354 352 351 351 351 351 351 351 351 350 349 348 349 350 350 350 351 350 348 347 344 344 344 343 343 343 344 347 347 347 348 345 343 344 345 346 346 346 346 346 346 345 345 344 343 343 344 344 344 343 343 344 343 343 343 344 343 344 344 343 343 343 343 344 345 345 345 344 342 338 333 330 328 326 326 325 325 323 322 322 322 322 323 323 324
354 353 352 352 351 351 351 352 352 350 350 349 348 348 348 349 350 350 348 347 345 343 344 344 344 343 345 349 346 348 356 350 344 344 344 345 345 345 346 345 345 344 344 344 343 342 342 343 343 343 343 343 343 343 343 343 343 344 344 344 343 343 343 343 344 344 344 344 343 341 337 333 331 328 327 326 325 324 324 323 323 322 322 321 320
354 352 352 352 352 351 351 351 352 351 351 350 348 348 348 349 350 350 349 348 346 343 343 343 344 343 344 348 347 351 356 348 344 345 342 343 345 344 345 344 344 344 344 344 343 343 343 343 343 343 343 343 343 343 342 342 343 343 343 344 344 344 344 342 342 343 343 345 344 344 343 341 339 337 334 331 329 328 326 326 326 325 324 324 323
353 352 352 352 351 351 351 351 351 351 352 351 350 348 349 350 350 350 349 348 348 345 343 344 345 344 343 345 345 349 348 344 347 350 345 342 342 342 343 343 343 343 343 343 343 343 343 343 343 342 343 343 342 342 342 343 342 343 343 343 344 343 344 344 343 344 344 344 345 345 346 346 345 344 342 340 338 336 333 332 330 328 328 328 327
350 351 351 351 351 351 351 351 350 351 353 353 351 349 349 350 350 350 349 349 349 348 346 346 345 344 344 344 344 345 344 344 349 350 349 348 342 340 342 342 343 342 342 343 343 343 342 343 342 342 342 343 342 343 342 343 342 343 343 343 343 343 344 345 344 345 345 345 346 345 346 346 346 346 346 346 345 343 342 340 338 336 335 333 332
349 349 349 349 350 351 352 352 351 352 353 352 351 350 350 351 351 351 350 349 348 348 348 347 346 344 343 344 342 344 344 343 344 344 349 355 349 343 343 341 343 343 342 343 342 343 342 342 342 342 342 342 343 343 342 343 342 342 342 342 343 343 343 344 344 345 345 345 346 345 346 346 346 346 346 347 346 346 346 345 344 343 342 340 338
349 347 348 348 348 351 352 353 353 353 353 350 351 352 351 352 352 352 352 350 349 349 349 348 348 345 345 347 345 344 344 343 343 341 344 352 353 348 343 341 343 343 342 343 342 342 342 342 342 342 343 342 342 343 343 343 343 342 342 342 342 342 343 343 344 344 344 345 346 345 346 346 346 346 346 346 346 346 346 346 346 346 345 345 343
350 347 347 347 346 349 353 353 354 355 353 350 351 352 352 353 353 353 353 352 352 351 349 350 350 346 347 350 349 345 344 343 343 342 343 345 348 347 343 341 344 344 344 344 344 344 342 342 342 341 341 342 342 343 343 343 343 342 342 342 342 342 342 342 343 344 344 344 345 345 345 346 346 346 347 346 346 346 346 347 347 347 347 347 346
351 348 346 347 345 348 352 352 353 355 355 352 351 352 353 353 354 354 354 354 353 353 352 351 351 349 348 350 351 348 346 346 343 344 342 343 346 346 343 341 342 344 345 345 344 344 345 344 343 342 343 344 345 345 345 346 344 343 343 343 342 342 342 342 342 343 344 345 346 347 347 347 348 348 348 348 347 348 347 347 348 348 349 348 348
351 349 346 347 346 347 350 353 353 354 355 354 353 353 353 354 355 354 355 354 354 354 353 352 351 351 350 350 351 350 349 350 349 347 347 346 347 345 343 343 345 345 345 345 344 341 343 345 346 345 346 347 348 347 346 346 345 344 344 343 342 342 342 342 343 346 348 350 351 351 351 351 351 351 352 351 351 350 350 351 351 350 350 349 349
350 349 347 347 346 347 350 352 353 353 354 355 355 355 354 354 354 354 354 354 354 355 354 353 352 352 352 351 350 350 351 353 353 352 352 351 348 346 344 345 346 346 345 345 343 339 340 345 347 347 348 348 348 347 346 345 344 344 344 344 345 345 346 347 349 352 353 354 355 355 355 354 356 356 356 356 356 355 355 355 355 354 353 352 353
349 349 347 347 347 347 349 350 353 352 353 354 355 356 355 354 354 354 354 354 355 355 354 354 354 353 353 351 350 350 352 355 356 354 354 353 351 348 346 345 345 344 344 345 343 341 340 342 345 347 348 348 349 349 348 347 345 346 347 349 349 351 353 353 354 355 355 357 357 358 357 358 358 358 358 358 358 357 357 357 357 357 356 356 356
348 348 348 349 348 348 349 350 352 353 353 353 354 354 355 355 355 354 355 355 355 355 355 354 355 355 354 353 352 351 353 355 356 356 354 354 352 349 346 347 351 348 344 344 343 341 342 341 342 345 346 349 351 350 350 349 348 349 351 353 354 356 357 356 356 358 358 358 358 358 358 358 359 358 358 358 358 358 359 359 359 359 358 358 357
348 348 349 349 349 348 349 351 352 353 354 354 354 354 354 354 355 355 355 356 354 354 354 354 354 354 354 354 353 352 353 355 356 356 355 354 353 350 345 346 352 354 352 352 348 343 344 344 343 345 348 351 353 350 350 351 351 352 354 355 356 357 357 357 357 358 358 358 357 358 358 359 358 359 358 359 360 360 360 360 359 358 358 357 357
347 347 348 349 348 348 350 351 353 353 353 354 354 354 353 353 354 356 356 355 355 354 354 354 354 354 354 354 353 352 353 355 356 355 355 355 354 352 349 346 349 353 357 360 355 346 346 348 347 348 350 352 351 349 349 351 352 353 353 354 355 355 355 356 357 357 358 358 358 358 358 358 359 359 360 361 362 361 359 358 357 356 356 355 353
347 347 347 347 347 347 348 349 351 353 353 353 354 354 354 353 353 354 355 355 355 354 354 353 353 354 355 355 354 353 354 354 355 356 355 356 354 352 351 349 348 351 352 355 357 352 348 350 351 351 352 351 351 348 348 351 353 352 350 351 352 353 355 357 358 358 358 358 357 357 357 358 360 361 361 361 359 358 356 355 356 356 355 352 348
347 346 345 346 347 347 346 347 348 352 354 353 353 353 354 354 353 354 354 355 355 354 354 354 353 354 355 355 354 353 354 354 355 356 355 355 355 353 353 352 351 351 349 351 356 355 350 352 353 352 353 353 351 349 348 350 352 351 349 349 349 352 356 357 359 358 357 356 355 356 358 359 360 360 359 358 357 355 355 355 355 354 352 349 346
346 346 345 345 346 347 346 347 347 349 351 353 353 353 353 354 353 354 355 355 355 355 354 354 354 354 354 355 355 353 353 354 354 355 356 355 355 354 354 353 352 353 351 351 353 354 353 353 353 353 354 353 351 350 349 349 350 350 348 348 350 352 357 358 358 356 355 355 356 358 360 360 359 358 357 356 354 354 354 354 353 351 349 346 344
345 345 345 345 344 344 345 346 346 347 349 350 351 352 352 352 353 354 355 355 355 355 355 354 354 354 355 355 355 354 354 354 353 354 354 355 355 354 354 353 353 354 353 352 353 353 353 353 353 354 354 353 353 352 352 350 349 348 348 349 349 351 358 358 354 353 355 357 358 359 359 358 357 356 355 354 354 354 354 353 351 348 345 342 340
344 345 344 344 343 342 342 344 345 346 347 348 349 350 351 352 352 353 353 354 354 355 354 354 353 354 354 354 353 353 354 354 353 353 352 352 354 354 354 354 353 353 353 354 353 353 354 354 354 354 353 354 354 353 352 352 350 349 350 351 347 349 357 357 351 355 358 358 359 359 358 356 355 354 353 353 353 353 352 350 347 344 341 339 337
342 343 343 343 343 342 342 343 343 344 345 346 347 348 349 350 351 352 352 353 353 353 353 353 352 352 352 352 350 351 351 351 351 351 352 351 351 353 353 353 353 353 353 354 354 354 354 354 354 354 354 354 354 353 353 352 351 350 352 352 348 346 352 352 352 358 360 358 358 358 356 355 354 353 352 352 352 350 347 345 342 340 338 335 333
344 343 343 343 342 342 342 342 342 342 343 345 346 346 347 347 348 349 350 352 352 352 352 352 351 352 351 350 349 349 350 350 348 349 351 351 351 352 353 354 353 353 353 354 355 355 354 354 355 355 355 354 354 354 353 350 349 350 352 352 349 346 347 350 355 359 359 358 359 357 355 354 352 351 350 349 348 346 344 342 339 337 335 331 329
345 344 344 343 343 342 343 343 342 342 342 343 344 345 344 344 345 345 346 348 350 351 351 351 351 351 351 350 349 349 350 350 349 349 349 350 350 351 352 353 354 354 354 354 355 355 355 355 355 355 355 354 354 353 352 351 350 350 351 352 350 347 347 351 357 359 359 359 358 357 355 353 351 350 348 346 345 343 341 338 337 334 331 328 327
344 344 344 343 342 342 343 343 343 342 342 342 343 343 342 343 343 342 342 343 346 348 349 349 350 351 351 350 349 350 351 351 349 349 349 350 351 352 351 351 352 354 354 355 355 355 355 355 355 355 355 355 354 352 350 351 352 352 353 352 350 348 348 352 356 358 360 359 358 356 354 352 350 348 346 344 342 340 338 336 334 332 328 326 323
344 343 343 342 342 342 343 343 344 343 343 344 343 343 343 343 342 341 339 340 342 345 345 347 349 350 350 350 350 350 350 350 349 349 349 349 351 352 351 351 351 352 352 354 354 354 354 354 355 355 355 354 354 352 351 351 352 353 354 353 351 349 350 352 355 357 359 360 358 356 353 350 348 346 343 342 340 339 337 335 332 329 327 323 320
344 343 343 342 341 342 342 342 343 343 344 344 344 344 343 343 342 340 338 338 340 343 344 345 347 348 349 350 349 350 349 349 349 348 349 350 350 350 351 352 352 353 352 353 354 355 355 355 355 355 355 354 354 353 352 352 352 352 354 353 352 351 351 353 354 355 358 359 359 356 353 348 345 342 341 340 338 337 335 334 331 328 325 321 319
343 343 343 343 342 342 341 342 341 342 342 343 343 343 343 342 341 339 338 337 338 341 344 346 347 349 349 349 349 349 350 349 349 348 348 349 351 350 349 351 352 352 353 354 354 355 355 355 355 355 355 355 354 354 354 353 353 353 354 353 352 352 353 354 354 355 356 358 358 358 354 348 344 341 340 339 337 336 334 333 330 327 323 320 319
343 343 343 343 343 342 342 342 341 341 341 341 341 341 340 340 340 340 339 337 337 339 343 346 348 348 348 349 349 349 349 351 350 349 348 349 350 350 349 350 351 352 353 354 354 355 356 355 355 355 354 354 354 355 354 354 354 354 353 352 352 353 354 354 355 355 356 356 357 358 356 350 345 341 340 339 337 335 334 332 329 325 322 319 318
342 342 342 342 343 343 343 343 342 342 342 341 341 339 339 339 339 339 339 339 339 340 342 345 346 347 347 348 348 349 349 350 350 350 349 349 349 350 350 350 351 352 354 355 355 355 355 355 355 355 354 354 355 355 355 355 355 354 354 352 353 353 353 353 353 355 356 356 357 358 356 352 347 343 339 339 337 335 334 332 328 325 321 319 318
342 342 342 341 341 342 342 342 342 342 342 341 340 340 339 340 339 340 340 340 342 342 343 343 344 345 346 347 348 348 349 349 349 350 350 349 349 350 350 350 351 352 353 354 355 355 355 355 355 355 355 355 355 355 354 354 354 354 353 353 353 354 354 353 353 355 357 357 357 358 356 353 350 346 341 339 337 335 333 331 328 324 321 318 318
343 342 341 341 341 340 341 341 341 341 341 341 340 340 340 340 340 340 341 342 343 343 344 344 343 344 346 347 348 348 347 348 350 350 350 350 350 351 351 351 351 351 351 353 354 354 355 355 355 355 354 354 354 354 352 353 354 353 353 354 353 354 355 355 356 357 357 357 357 357 355 353 351 348 343 340 337 335 333 331 328 324 320 318 318
344 343 342 341 341 341 340 340 340 340 339 339 339 339 339 339 339 340 341 342 343 343 344 344 344 344 345 346 348 347 347 348 350 350 351 351 351 352 352 351 351 350 350 351 351 351 353 354 355 354 352 351 353 353 352 352 353 353 353 354 354 354 355 357 358 357 357 357 357 355 355 354 352 349 344 340 337 334 333 331 327 324 320 317 318
345 344 343 342 342 341 341 340 339 339 339 339 338 338 338 338 338 339 340 342 343 343 344 344 345 345 345 346 348 348 349 349 350 351 351 351 352 352 352 352 351 351 350 350 349 350 350 351 352 352 351 351 352 353 352 352 351 351 353 353 354 354 355 357 357 356 356 357 357 355 354 354 353 349 344 340 337 334 333 331 327 323 320 317 318
346 345 345 344 343 342 342 341 340 339 339 339 339 338 338 338 338 339 340 342 342 344 344 344 345 345 345 347 349 349 349 350 351 351 352 352 353 352 353 353 352 352 351 350 349 350 350 350 352 351 351 351 352 352 353 352 351 351 352 353 354 354 355 356 356 356 356 357 357 356 354 353 352 348 343 338 335 333 333 331 328 323 319 317 317
346 346 345 345 344 343 343 342 341 341 341 341 340 339 339 338 338 339 340 341 343 344 344 345 345 345 346 347 348 350 350 351 350 351 352 353 353 353 353 353 353 352 352 351 350 350 351 351 352 352 351 351 352 352 352 352 352 352 352 352 353 354 355 356 356 356 356 356 357 356 353 352 351 347 342 337 332 332 333 332 327 322 319 317 316
347 347 346 346 345 344 344 343 343 343 343 343 342 341 341 340 340 340 340 342 343 344 345 345 346 346 347 348 349 350 350 351 351 352 352 353 353 353 353 353 353 353 353 351 351 351 352 352 352 352 352 352 352 352 353 352 352 353 353 353 354 355 356 356 356 356 356 356 357 356 353 351 350 346 341 334 328 328 332 332 326 320 318 317 316
348 348 347 347 346 346 345 345 345 344 344 344 344 343 342 342 341 341 341 342 344 344 346 347 347 348 348 349 350 351 351 351 352 352 353 353 353 354 353 353 354 353 353 352 352 353 353 353 353 352 352 353 353 354 354 353 353 354 354 355 356 357 357 357 356 355 355 356 358 357 354 351 349 345 338 331 328 327 328 329 325 319 317 317 316
Wind_Speed
6 6 6 6 6 6 5 5 4 3 3 2 3 3 3 3 3 2 2 2 3 3 3 3 3 3 4 4 4 4 4 4 3 1 0 1 1 2 3 3 4 5 5 4 3 2 2 3 3 3 3 4 3 3 3 3 3 3 3 3 4 4 4 5 6 6 6 6 7 7 8 9 9 10 10 10 10 11 10 9 8 8 8 8 10
6 5 5 5 5 5 4 3 2 2 2 2 2 2 3 3 2 2 2 2 3 3 3 4 5 5 5 5 5 4 4 4 3 1 1 0 1 1 1 1 2 4 5 5 4 4 4 4 4 4 4 4 4 4 4 3 3 4 4 4 4 4 4 5 6 7 7 7 8 8 9 10 10 11 11 10 10 10 9 9 8 8 8 9 10
4 4 5 4 4 3 3 2 2 2 2 2 2 2 3 2 2 1 1 2 3 3 4 5 6 6 5 5 5 4 3 3 3 2 2 1 1 2 1 0 1 1 2 3 4 4 4 4 4 4 4 4 4 4 3 3 4 4 4 4 4 4 5 6 7 7 8 9 9 10 10 10 11 11 11 10 10 9 9 9 8 8 8 8 9
4 3 4 4 3 3 3 3 2 2 3 3 3 3 3 2 2 1 1 2 3 3 4 5 5 5 5 4 4 3 3 3 3 3 2 2 2 2 2 1 1 1 1 2 2 3 3 3 4 4 4 4 4 4 4 3 4 4 4 4 5 5 6 7 7 8 9 10 11 11 11 11 12 12 11 10 10 9 10 9 9 9 8 8 8
4 3 3 4 4 4 4 3 3 3 4 4 4 4 4 3 3 2 2 2 3 3 4 5 6 5 4 3 3 3 4 3 3 3 3 3 3 3 3 3 3 2 2 3 3 3 3 3 4 4 4 4 4 4 4 4 4 5 5 6 6 7 7 8 8 9 10 11 12 12 12 12 12 12 11 11 10 10 10 9 9 9 8 8 8
4 3 4 4 5 5 5 5 4 5 5 4 4 5 5 4 4 3 2 3 3 3 4 5 5 5 4 3 3 3 4 4 3 3 3 3 4 4 4 4 4 4 4 4 4 4 5 5 5 5 5 5 5 5 5 5 5 6 6 7 8 8 8 9 10 11 11 12 12 13 13 13 13 12 12 11 11 11 11 10 10 10 9 9 8
4 4 4 5 5 5 5 5 6 6 5 5 5 5 5 5 4 3 3 3 3 4 6 6 5 5 4 3 3 4 4 4 4 3 3 3 4 4 5 5 5 5 5 5 5 5 6 6 6 7 7 7 7 7 7 7 7 7 7 8 9 9 9 11 11 12 12 13 13 13 14 13 13 12 11 12 12 11 11 10 10 10 10 9 9
5 5 5 6 5 5 5 5 7 7 6 5 5 5 5 5 4 4 4 4 4 5 6 6 5 5 5 5 4 4 5 5 4 4 4 4 4 4 5 5 5 5 6 6 6 6 6 7 7 8 8 8 8 8 8 8 8 8 9 9 9 10 10 11 12 12 13 13 13 13 13 13 12 12 12 12 12 11 11 11 10 10 10 10 10
7 7 6 6 6 5 5 6 6 7 6 6 5 5 5 5 4 5 5 4 4 5 6 5 3 5 6 6 6 6 5 5 5 5 6 6 5 5 5 5 5 5 6 7 7 7 7 7 8 8 9 9 9 10 9 9 9 10 10 10 10 11 11 11 12 12 13 13 13 12 12 12 12 12 12 13 12 11 11 11 11 11 11 10 10
8 8 8 7 6 6 6 7 6 6 6 6 6 5 5 4 5 5 5 5 5 4 4 3 2 4 6 7 7 7 6 7 7 7 7 7 7 7 6 6 6 6 6 7 7 7 7 7 8 8 9 9 10 10 10 10 10 10 10 11 11 11 11 12 12 12 12 13 13 12 12 12 12 13 13 13 12 11 12 12 12 11 11 11 11
10 9 9 8 7 7 7 8 7 6 6 7 6 5 4 4 5 5 4 4 5 3 2 2 1 1 4 6 6 7 7 8 8 9 8 8 8 8 8 8 8 7 7 7 7 7 7 7 8 8 9 9 10 10 10 10 10 10 10 10 11 11 12 12 12 12 12 12 12 12 13 12 13 13 13 13 12 12 12 13 12 12 12 12 12
10 10 9 9 8 8 8 7 7 6 7 6 6 5 4 4 4 3 3 4 5 4 3 3 1 0 1 3 3 4 6 7 7 8 8 8 8 9 9 9 9 9 9 9 8 9 8 8 9 9 9 9 9 9 10 10 10 10 10 10 11 11 12 12 12 12 12 12 12 13 13 13 13 13 13 13 13 13 13 13 13 13 14 13 13
11 10 10 9 9 8 8 8 7 7 7 6 6 5 4 4 3 2 2 3 4 5 4 3 2 1 1 1 2 3 5 6 7 8 8 8 9 9 10 11 11 11 10 11 11 11 10 10 10 10 10 9 9 9 9 10 10 10 10 10 10 10 11 12 13 13 14 14 14 13 13 13 14 14 14 14 14 14 14 14 13 13 14 14 14
11 10 10 10 9 8 8 8 7 7 7 7 7 6 6 5 4 3 2 2 3 4 4 3 2 1 0 1 2 3 5 6 7 9 9 9 10 11 12 12 13 12 12 12 13 12 11 10 10 10 10 10 10 10 10 10 10 10 10 10 11 11 12 12 13 14 14 15 15 15 14 14 14 14 15 15 15 15 15 15 14 14 14 14 15
12 11 10 10 9 8 8 8 7 7 8 8 8 8 8 7 5 3 2 2 2 2 2 1 2 3 1 2 2 2 3 5 7 9 10 11 11 12 12 13 14 13 13 13 13 12 11 11 11 10 10 10 11 11 11 11 11 12 12 12 12 12 12 12 13 13 14 15 15 15 15 15 15 15 15 15 15 15 15 15 15 15 15 15 16
14 12 11 10 9 8 8 8 8 8 8 9 9 8 8 7 6 4 2 2 1 2 3 1 1 4 1 1 0 1 1 3 7 8 8 10 11 11 12 13 13 13 14 14 13 13 12 12 12 11 11 11 11 12 12 12 13 13 12 12 12 12 11 11 11 12 13 14 14 15 15 15 15 15 16 16 16 16 16 16 16 16 16 16 17
15 13 12 11 10 8 8 8 8 8 9 9 8 8 7 7 6 5 3 2 2 3 4 1 2 4 2 0 1 1 1 2 6 5 6 8 10 11 12 12 13 13 13 14 14 14 14 14 13 12 12 12 12 12 12 13 13 13 13 12 12 12 11 11 11 11 12 13 14 14 15 15 16 16 16 16 17 17 17 17 17 17 17 17 18
17 15 13 12 10 9 8 9 9 9 9 8 7 7 6 6 6 6 4 3 2 3 5 3 3 3 4 3 2 2 2 3 2 2 6 8 8 9 11 12 13 14 14 15 16 16 15 15 15 14 13 13 13 13 14 14 14 14 14 13 12 12 11 11 11 12 12 13 14 15 15 16 16 17 17 17 18 18 18 18 19 19 19 19 19
17 16 14 13 11 10 9 9 9 9 8 8 7 6 6 6 6 6 6 4 3 3 3 3 3 2 3 5 6 5 6 4 1 1 4 6 8 9 9 10 12 14 15 15 15 15 14 14 14 14 14 14 15 15 15 15 15 15 15 14 14 13 13 13 13 13 14 15 15 16 17 17 18 18 19 19 19 20 20 20 20 20 21 21 21
16 15 15 14 13 11 10 10 10 9 8 8 7 6 6 6 6 7 6 5 4 4 3 4 4 3 3 5 6 6 6 4 2 2 0 2 7 8 9 12 12 11 11 11 12 13 13 13 13 14 14 14 15 15 16 16 16 16 15 15 15 15 15 15 15 15 16 17 17 18 19 19 20 20 21 21 21 21 22 22 22 23 23 23 23
16 15 16 16 14 12 11 10 11 10 8 7 7 7 6 6 7 6 6 6 5 5 5 4 4 4 4 5 5 5 5 4 4 4 0 1 3 3 10 15 13 10 10 10 11 11 11 12 12 12 13 13 14 16 16 16 16 16 15 15 15 16 16 16 17 17 18 18 19 20 20 21 21 22 22 22 23 23 23 24 24 24 25 25 25
17 16 16 16 15 14 12 11 11 10 9 8 7 7 7 7 7 6 6 6 5 5 5 4 4 4 3 5 5 4 4 4 4 4 2 2 2 4 9 12 10 11 11 11 12 11 11 11 11 12 12 13 14 15 16 15 15 15 15 16 16 16 17 17 17 18 19 20 21 21 22 23 23 23 23 23 24 24 24 24 24 25 25 26 26
18 18 17 17 16 16 15 13 11 10 9 9 8 7 7 7 7 6 6 6 6 5 5 5 5 4 4 5 5 5 5 5 6 6 4 3 2 5 10 11 10 11 12 13 12 10 11 11 11 11 11 12 13 13 14 13 13 14 14 15 16 17 17 17 18 18 20 20 20 21 21 22 22 22 22 22 22 22 23 23 23 24 25 26 27
20 19 19 18 18 18 17 15 13 11 10 10 9 8 8 8 8 7 7 7 7 7 6 7 7 6 6 5 5 5 6 7 8 7 7 7 5 6 9 10 8 11 15 15 13 11 10 9 9 9 9 11 13 14 14 12 12 12 13 13 14 15 15 16 16 17 18 18 18 18 18 18 18 17 17 18 19 20 20 20 21 23 24 25 26
22 21 20 20 20 19 18 17 15 13 12 11 9 9 9 9 9 8 8 8 8 8 8 8 7 8 7 6 6 6 6 7 8 8 9 9 8 7 7 7 6 10 15 14 14 13 8 6 8 7 8 12 13 15 15 14 14 13 13 13 13 13 14 14 14 15 15 15 15 15 15 14 14 15 15 16 17 17 17 18 19 21 21 22 22
23 22 20 20 21 20 19 18 17 14 12 11 11 10 10 10 9 9 9 9 9 9 9 8 8 8 8 7 7 6 6 7 8 8 10 11 10 8 7 6 6 9 12 12 13 11 6 6 8 5 7 12 14 14 15 15 14 14 14 14 14 13 13 13 13 14 14 14 14 14 13 13 13 14 14 14 14 14 14 15 17 17 18 18 17
23 22 20 20 21 20 20 19 18 16 13 12 12 12 12 11 10 10 9 9 10 9 9 8 8 8 9 9 8 7 6 7 8 8 9 10 12 10 6 4 4 6 9 10 11 9 7 9 8 4 7 13 14 14 15 14 14 14 14 14 14 14 13 13 13 13 13 14 14 14 13 12 12 12 13 13 13 12 12 13 14 15 15 15 15
23 22 21 21 21 21 20 19 18 17 15 13 12 12 13 12 11 11 10 9 9 9 9 9 9 8 8 8 9 8 7 7 7 8 8 9 11 11 7 3 3 4 5 6 7 7 8 11 9 6 10 14 15 15 15 14 14 15 15 16 16 15 14 14 14 13 14 14 14 13 11 11 12 12 12 12 12 11 12 12 13 13 13 14 14
23 21 20 20 20 21 21 20 19 17 16 15 14 13 13 14 14 13 11 9 9 9 10 10 9 8 8 8 8 9 9 8 8 8 9 10 10 10 8 6 4 3 2 2 4 5 8 11 10 9 14 17 16 16 16 15 16 17 17 17 16 16 15 15 14 14 13 13 12 12 12 12 12 12 12 11 12 12 12 12 12 12 13 13 13
24 22 20 19 19 20 21 21 20 18 17 16 15 14 13 14 15 15 13 11 11 10 10 11 11 10 9 8 8 9 9 10 10 9 10 10 10 9 8 8 7 6 3 3 4 5 8 13 14 14 17 19 18 17 17 17 18 18 18 18 17 17 16 15 14 13 13 13 13 12 13 12 12 11 10 11 12 13 12 12 12 13 13 13 14
25 24 22 20 19 19 20 21 21 20 18 17 16 15 14 14 15 15 15 13 13 13 12 12 12 12 12 10 9 9 9 11 11 11 11 10 10 9 8 8 9 9 8 4 2 6 12 16 19 20 20 21 20 18 18 19 20 20 20 19 19 17 16 14 13 14 14 15 14 13 12 11 10 10 10 11 11 11 11 12 12 13 13 14 16
27 26 25 23 21 20 20 20 21 21 20 18 17 16 15 15 15 15 15 14 14 14 13 13 13 13 13 12 12 11 11 11 12 12 12 11 10 8 8 9 9 10 11 7 5 11 18 19 20 22 22 21 21 20 21 22 21 21 21 21 20 18 15 13 14 15 16 15 13 11 11 10 9 10 10 10 10 10 11 12 12 13 14 17 19
29 28 27 26 24 22 21 21 21 20 20 19 18 18 17 17 16 16 16 16 16 16 16 15 15 15 15 15 15 15 14 14 13 13 13 12 11 10 9 10 10 10 11 10 8 13 20 21 21 23 22 22 22 22 23 24 23 22 23 22 20 17 14 13 15 15 13 12 12 11 10 9 9 9 9 9 10 11 11 12 13 15 17 19 20
30 30 29 28 27 25 24 23 22 21 20 19 19 19 19 19 18 18 18 18 18 18 18 18 18 17 17 18 19 18 17 17 16 15 14 14 13 13 12 11 12 12 11 12 10 11 18 23 23 23 23 22 23 23 23 24 24 24 24 23 20 15 12 13 15 12 10 13 13 11 10 9 9 9 9 10 11 11 11 13 15 17 19 20 20
30 30 30 30 29 28 26 25 25 23 22 21 20 20 20 20 20 20 20 20 20 20 20 20 19 18 19 19 20 20 19 18 18 17 16 15 14 15 14 13 13 13 12 13 12 11 15 21 23 23 23 23 24 23 23 24 23 24 25 24 20 15 11 13 13 8 10 14 13 11 11 10 10 10 10 10 10 11 12 14 16 18 19 20 20
31 31 30 30 29 29 28 27 27 26 25 23 22 22 21 21 21 21 21 21 22 22 22 21 20 19 19 19 19 19 18 18 19 18 18 17 16 15 15 15 14 14 14 14 14 13 14 18 22 23 22 23 23 23 23 23 23 24 24 23 21 15 11 12 11 7 10 15 13 12 11 10 10 10 10 10 10 12 14 15 17 18 18 19 20
33 32 31 30 30 30 30 30 29 29 27 26 25 24 23 23 22 22 22 23 23 23 23 23 22 21 20 20 19 18 18 18 19 19 18 18 17 16 16 16 15 15 15 15 15 15 15 17 22 24 23 23 23 23 22 23 25 25 23 23 21 16 12 12 10 7 9 14 14 12 11 9 9 10 10 10 11 13 15 16 16 17 18 20 20
34 33 32 31 31 31 31 31 31 30 30 28 28 27 26 25 24 24 24 24 24 24 24 24 23 23 22 21 20 19 18 19 19 19 18 18 17 17 17 17 17 16 17 16 16 16 17 18 20 23 24 23 23 22 21 22 24 23 22 23 22 17 13 12 11 7 8 13 14 12 10 9 9 9 10 11 13 14 15 16 16 17 19 20 20
34 33 33 33 33 33 32 31 32 32 31 31 30 29 28 27 27 26 25 25 25 25 25 25 24 24 23 22 22 21 20 20 19 19 19 19 18 18 17 17 17 17 17 18 18 17 18 18 19 21 23 22 21 22 21 21 21 21 21 22 23 19 14 13 12 8 7 11 14 11 9 8 8 9 11 12 13 14 15 16 17 18 20 21 21
33 33 34 34 34 33 33 32 32 32 31 31 31 31 30 30 29 28 28 27 27 26 26 26 26 25 25 24 24 23 22 21 20 19 19 19 20 20 20 18 18 17 17 17 17 17 18 18 18 20 22 22 22 21 21 20 19 19 20 20 21 21 17 15 12 9 8 11 13 11 8 7 8 9 11 12 13 14 14 16 17 19 21 21 22
34 34 34 33 34 34 33 33 33 32 32 33 33 33 33 32 31 31 30 29 29 28 28 28 27 27 27 26 26 25 23 22 21 20 20 20 20 21 21 20 19 18 18 17 17 17 18 18 19 20 20 21 22 20 20 19 18 19 20 18 19 21 20 18 13 9 9 12 14 12 8 7 8 10 11 12 13 14 14 16 18 20 21 22 22
35 35 34 33 33 34 34 34 34 34 34 35 35 35 35 34 33 32 32 31 31 30 30 29 29 29 29 29 28 26 25 24 22 22 21 20 21 21 21 21 20 19 19 19 19 19 18 18 19 19 18 20 22 20 19 20 20 19 18 16 17 20 21 19 16 13 11 13 15 13 9 8 9 10 11 13 13 14 15 16 18 20 21 22 22
35 35 34 34 34 35 35 35 35 35 36 37 38 37 36 36 34 33 33 33 32 32 31 31 31 31 31 30 29 28 26 26 24 23 22 22 21 21 21 21 21 20 20 21 21 21 19 19 19 19 18 20 23 22 21 22 22 19 16 14 16 18 17 15 14 15 14 15 17 15 9 8 10 10 12 13 13 13 14 15 17 19 21 22 21
34 34 34 35 36 36 35 35 36 37 38 39 39 38 38 37 36 34 34 33 33 32 32 32 32 32 31 31 30 29 28 27 26 25 23 23 22 22 22 21 21 21 21 22 23 22 22 21 21 21 21 22 24 24 23 23 21 17 15 14 15 15 14 12 13 15 17 17 18 15 10 8 10 11 13 13 12 12 13 14 16 18 20 21 20
33 33 35 36 36 36 36 36 37 38 39 39 39 38 38 37 36 35 34 34 33 33 33 33 33 33 32 31 31 31 30 29 28 26 25 24 23 22 22 22 22 22 21 21 22 22 23 23 24 25 24 24 25 25 24 23 21 19 17 17 16 15 14 14 15 17 18 17 16 13 11 9 9 11 13 13 12 11 11 13 15 17 19 19 19
34 35 36 36 36 37 37 37 38 39 40 40 40 39 38 38 37 36 35 34 34 34 34 34 34 33 33 32 32 32 32 30 29 28 26 25 24 23 23 23 23 22 21 21 21 21 22 24 25 26 25 24 24 24 23 22 22 21 20 19 18 16 15 16 18 19 19 17 13 10 9 10 9 11 13 13 12 10 10 11 14 16 18 18 18
35 37 37 36 37 37 38 38 38 39 41 42 40 40 39 38 37 35 35 35 35 35 35 35 34 34 34 34 33 33 33 32 30 29 28 26 25 24 23 24 23 23 22 22 21 21 22 23 24 25 24 23 24 24 22 21 21 21 20 19 18 17 17 17 19 20 19 16 11 7 8 10 11 11 12 13 12 10 9 10 12 15 16 16 16
35 35 35 36 37 37 38 38 37 39 42 42 41 41 41 39 37 35 35 36 36 36 36 36 35 35 35 35 34 34 34 33 32 31 29 27 26 24 24 24 24 24 24 23 22 22 22 23 24 24 24 23 23 24 23 22 22 22 20 19 18 18 16 14 15 18 18 15 11 8 9 11 12 11 11 12 12 11 9 9 11 14 15 15 15
34 35 36 36 37 37 37 37 38 40 43 43 41 41 41 39 37 36 36 36 36 37 37 37 37 36 36 36 35 34 35 34 33 32 30 28 26 25 25 25 25 26 26 25 24 23 24 24 24 23 23 22 22 23 23 21 21 21 20 19 18 17 14 11 11 14 16 14 11 10 10 12 13 11 11 12 12 12 11 9 10 12 13 13 14
36 37 37 36 36 36 37 38 39 41 43 43 41 41 40 39 37 37 37 37 36 37 37 37 37 37 37 37 36 35 36 35 34 33 31 29 27 26 26 26 26 27 28 26 26 26 24 24 24 23 23 22 22 21 21 19 18 19 20 20 18 16 15 13 12 13 15 15 14 12 10 12 14 12 10 10 11 12 11 9 8 10 11 10 12
36 37 36 34 35 36 37 39 39 40 42 42 41 40 40 38 37 37 37 36 36 36 37 37 37 38 38 37 37 37 37 36 34 33 32 30 28 28 27 26 27 29 29 28 27 27 25 24 24 23 23 22 22 21 19 17 16 16 17 18 18 17 18 18 17 13 10 11 12 11 11 12 14 12 9 6 5 7 9 8 7 9 9 8 11
Wind_Direction
143 144 141 137 132 131 130 126 124 125 125 118 123 131 137 144 153 183 222 246 248 254 262 257 261 279 296 310 319 324 332 352 8 27 151 232 263 267 243 226 219 218 219 214 219 244 262 267 273 280 288 299 305 300 300 306 307 308 314 318 325 328 328 331 336 340 341 339 335 333 333 333 333 334 338 342 343 347 351 355 1 3 359 351 347
151 152 149 144 139 138 141 140 137 139 135 132 145 155 159 154 153 170 215 246 255 258 259 266 274 277 284 296 308 313 314 329 343 336 323 264 263 268 244 218 216 211 212 215 218 224 238 254 265 273 282 287 291 288 286 300 304 309 320 325 327 325 322 324 325 329 331 327 324 325 328 328 331 334 336 338 341 344 347 350 355 354 349 343 340
160 162 163 164 163 161 167 163 155 157 156 167 179 182 178 170 169 177 215 237 249 264 269 273 277 276 277 288 300 301 301 315 321 310 296 274 263 267 264 237 231 219 207 214 222 226 232 242 253 261 269 276 286 290 290 303 309 313 318 317 321 316 312 316 318 320 320 320 323 326 329 330 331 332 333 335 338 340 343 345 346 344 340 337 333
178 183 188 193 196 198 202 189 185 192 189 193 195 195 195 197 199 202 232 234 244 265 275 279 282 285 280 285 294 286 287 298 302 301 293 278 274 280 289 291 275 275 265 253 251 248 248 249 252 257 264 266 277 289 293 299 307 310 308 306 308 304 307 313 316 317 317 319 323 325 327 328 328 329 331 332 332 333 335 337 336 335 332 328 325
198 211 225 230 228 227 224 208 201 204 205 208 205 204 210 214 216 226 236 238 259 270 279 287 287 286 283 282 280 273 271 278 289 298 297 286 279 279 281 283 279 274 274 272 272 272 272 273 273 273 278 278 279 284 285 289 295 300 300 300 302 305 310 312 312 313 313 314 317 320 321 322 324 327 329 328 327 328 330 331 329 327 325 322 322
206 219 239 247 244 239 229 215 207 205 207 211 210 214 223 228 228 240 250 255 280 284 284 296 291 276 273 269 262 262 260 263 276 286 293 289 282 278 276 278 279 277 274 271 273 278 279 280 285 287 291 294 293 291 290 289 289 291 294 296 299 304 306 304 306 310 311 313 314 316 316 318 321 323 325 325 324 325 327 327 323 321 320 318 317
215 223 239 247 248 243 227 214 209 208 208 206 209 219 230 239 241 254 269 272 289 286 281 293 286 260 256 256 250 253 252 256 263 274 288 290 287 282 279 279 279 279 278 278 279 281 285 288 290 293 296 299 299 297 293 291 290 291 292 295 298 300 299 301 305 309 311 312 313 314 314 316 318 319 319 318 319 321 320 318 315 315 317 314 311
220 229 240 246 248 244 228 214 211 213 212 208 213 224 232 240 247 263 273 269 274 276 281 295 281 248 246 247 246 250 252 256 259 268 279 285 290 287 283 283 282 283 281 281 285 285 288 292 295 298 298 299 301 301 299 296 294 294 292 294 297 297 297 299 302 306 310 311 313 315 314 314 316 315 313 312 313 314 312 312 313 313 312 309 307
221 230 238 245 248 242 229 214 209 214 218 220 222 226 230 233 243 261 270 261 257 270 286 300 275 238 241 245 249 253 257 263 268 272 275 280 289 289 291 293 289 290 289 288 290 292 293 294 297 300 300 301 303 305 306 304 302 300 299 297 295 296 297 299 302 306 309 312 314 314 313 312 313 312 310 309 310 310 309 308 307 307 306 303 300
226 231 235 241 242 236 225 210 208 216 224 226 222 222 229 237 245 254 260 253 251 270 295 309 298 241 244 250 257 261 267 273 275 275 277 284 290 292 295 294 293 296 296 298 299 300 302 303 303 303 306 308 309 311 310 308 306 304 304 302 300 299 300 301 304 306 308 311 313 311 310 309 309 307 304 303 303 301 299 300 299 298 298 295 292
228 230 232 233 230 223 216 210 213 222 229 225 214 216 233 247 249 244 245 242 247 263 280 300 348 281 258 258 262 269 273 273 275 278 283 289 292 295 297 294 296 298 299 303 305 306 309 310 310 310 313 314 313 314 312 309 307 306 306 307 309 309 308 307 304 306 308 308 308 308 308 309 309 306 305 305 302 296 291 291 292 291 289 287 284
224 225 225 223 219 215 211 213 221 227 230 223 212 220 238 252 256 246 239 235 245 259 264 266 279 46 261 261 265 273 273 270 271 279 285 292 295 296 298 299 298 299 303 305 305 308 311 314 316 316 320 322 321 319 316 314 311 310 311 313 317 319 319 316 310 311 312 309 308 310 310 312 313 312 310 309 308 305 299 293 289 287 285 283 281
220 220 220 217 214 213 213 216 223 228 229 222 218 229 242 256 267 257 249 242 245 252 254 249 219 182 225 271 287 281 277 278 280 287 291 293 298 298 299 301 301 302 304 304 305 307 310 314 317 320 322 325 328 327 324 321 319 318 318 319 320 320 321 321 319 320 320 320 319 317 315 313 313 314 313 312 311 310 308 303 297 291 288 286 284
219 219 219 216 214 218 220 220 224 228 228 222 220 230 243 256 265 261 263 261 247 239 236 227 203 188 23 339 327 308 288 288 292 296 298 298 300 302 302 302 305 309 308 303 303 305 308 312 314 316 320 323 327 328 327 325 325 324 322 320 317 315 316 318 319 321 323 324 323 321 320 316 314 314 314 314 312 312 311 309 305 300 296 293 290
222 223 223 219 221 226 228 227 227 229 229 224 222 230 242 253 262 263 264 275 259 209 194 208 201 181 84 17 350 347 309 296 300 295 294 299 301 303 305 306 309 312 310 306 305 306 306 309 310 314 317 321 323 324 325 327 327 326 324 321 318 317 316 315 316 318 320 322 322 322 322 321 319 317 316 315 314 313 314 312 309 306 303 300 298
227 231 229 227 230 233 235 234 230 230 230 227 228 233 240 249 257 256 253 271 254 184 162 73 223 197 131 47 127 17 337 318 323 306 290 293 300 305 307 309 313 313 310 308 309 309 307 306 307 312 317 319 321 323 324 326 327 327 326 325 324 322 319 316 316 316 319 321 322 323 324 324 322 321 319 318 317 316 315 314 313 310 307 305 303
234 237 234 234 237 240 240 235 230 230 230 231 231 232 235 243 246 241 236 246 238 205 203 265 296 232 221 136 53 5 267 312 331 321 305 297 297 305 309 310 314 315 312 310 311 310 308 307 307 310 315 318 319 322 324 325 326 326 326 326 325 323 320 318 318 318 318 319 320 322 323 323 323 322 322 320 319 318 316 315 314 313 311 308 305
236 237 235 235 238 242 240 231 228 229 232 235 232 228 228 232 234 231 229 232 234 222 224 254 294 263 245 257 318 330 296 318 336 323 326 322 312 309 308 308 311 312 312 312 314 313 311 309 308 309 311 314 317 318 320 322 323 323 323 324 323 321 318 317 317 316 316 316 316 318 318 319 319 319 319 319 318 318 317 316 315 314 312 310 308
234 233 233 233 236 241 237 227 226 228 234 236 231 225 220 220 224 225 228 234 244 247 249 269 288 274 255 270 291 303 306 309 259 322 333 335 335 330 320 316 313 313 314 315 319 322 320 315 313 313 313 313 315 316 319 320 320 321 320 321 321 319 316 314 314 314 314 314 314 314 315 315 315 315 316 316 316 316 316 316 315 314 313 311 310
233 231 230 230 234 237 232 226 225 227 233 235 229 224 218 218 222 223 229 237 247 265 280 290 290 282 290 295 294 301 308 295 275 315 338 310 330 340 345 339 331 330 332 332 334 334 331 327 321 320 319 317 317 317 320 322 321 320 319 321 322 320 318 315 315 314 315 315 315 315 315 315 314 314 315 315 316 316 316 317 316 315 314 312 312
234 232 229 228 231 232 226 223 226 227 230 231 226 225 223 219 222 228 237 244 250 261 270 286 298 293 309 323 312 308 313 300 291 304 265 295 313 320 338 342 343 353 358 350 346 342 337 335 332 328 326 325 324 322 322 322 321 319 320 322 322 321 321 319 318 316 315 316 316 317 316 316 316 315 315 315 315 316 316 317 317 317 316 315 314
234 231 227 227 228 228 225 223 226 227 228 228 223 224 225 220 223 234 244 250 252 258 262 273 292 290 298 321 327 325 321 322 329 330 327 326 297 292 323 335 334 340 354 352 345 342 340 339 337 335 336 335 332 327 324 322 320 318 317 317 317 318 319 320 319 318 318 317 317 318 318 318 317 317 316 315 315 315 315 316 317 316 316 316 314
234 230 226 224 225 226 226 225 227 229 228 226 223 224 226 226 231 241 250 253 253 261 265 259 266 273 277 301 325 335 336 341 344 340 330 323 307 299 317 328 321 320 337 345 341 339 339 340 341 346 350 349 345 339 333 328 323 319 316 314 313 313 315 317 319 320 321 321 320 320 320 319 319 319 319 318 317 317 317 318 317 316 316 316 314
233 230 225 223 224 224 225 226 226 229 230 227 225 225 227 232 239 247 255 257 258 264 266 257 254 259 267 287 309 324 337 346 343 337 332 324 308 293 309 325 323 317 329 338 336 333 336 343 353 4 10 8 6 3 357 351 345 336 329 325 321 319 319 320 322 323 324 324 324 323 323 324 325 327 328 328 327 326 325 323 321 319 318 318 317
231 229 225 223 223 224 226 227 226 227 230 230 228 226 229 236 244 253 262 267 268 269 270 264 255 255 264 275 288 307 329 343 345 339 334 328 316 298 304 319 311 313 328 333 330 332 338 355 4 10 21 20 17 15 13 11 6 359 351 346 343 339 336 332 329 328 328 329 331 333 335 338 341 342 342 341 339 337 334 330 327 325 324 324 323
231 230 227 225 226 227 228 230 229 229 232 234 235 234 235 240 246 255 268 278 277 273 273 270 261 261 265 268 276 291 317 336 346 339 331 330 326 307 299 318 315 314 326 327 325 329 327 340 349 351 16 22 20 16 14 12 9 5 2 358 356 354 348 341 337 335 336 341 345 347 349 350 350 349 346 343 341 337 334 332 330 331 330 329 328
233 232 231 229 228 229 231 232 232 234 236 238 240 241 241 242 247 256 270 283 281 273 273 274 272 272 271 270 272 279 301 327 339 336 327 329 333 325 303 313 328 323 325 325 331 339 335 343 355 5 14 16 16 14 13 12 10 9 9 6 4 3 358 353 349 347 349 352 352 350 350 351 350 348 345 341 341 338 335 334 331 330 330 330 331
234 234 234 233 232 231 231 232 234 237 240 243 246 247 244 244 248 255 268 282 281 274 273 277 282 284 280 276 274 275 289 309 325 333 330 328 335 335 320 309 335 332 326 329 338 346 349 358 13 24 13 9 7 9 12 12 13 11 9 7 6 4 1 358 355 353 355 354 352 350 351 354 353 350 348 346 347 344 339 335 330 330 332 334 337
234 235 235 236 235 234 234 235 236 239 243 245 249 251 249 247 248 254 264 276 281 279 274 274 280 287 290 287 281 278 282 292 308 323 329 327 326 327 323 319 323 320 316 330 327 326 343 358 6 2 358 359 360 4 9 13 12 9 7 5 4 3 360 359 356 355 359 360 359 0 360 359 357 353 351 348 345 340 335 333 333 335 340 341 344
233 235 236 236 237 237 238 237 238 240 243 246 249 252 253 251 250 252 259 268 275 279 277 272 272 278 285 289 288 285 282 286 295 307 320 326 323 318 316 311 308 301 287 298 313 312 328 342 342 339 343 350 354 359 4 8 7 6 6 3 2 2 0 359 359 4 10 9 4 2 358 358 358 354 347 340 335 332 333 336 340 345 347 347 346
235 236 236 237 238 240 241 240 240 240 243 246 249 252 254 253 252 251 255 262 268 273 276 274 272 273 275 279 284 287 287 285 286 294 307 319 323 319 309 302 302 298 292 286 293 305 314 323 327 331 338 343 348 354 358 1 3 3 4 1 360 2 1 3 10 13 7 0 357 356 356 358 354 345 338 334 331 333 338 345 350 350 347 343 341
236 237 238 239 240 242 243 243 242 241 243 245 247 250 252 252 251 250 253 259 264 268 271 272 272 272 272 275 279 285 289 288 285 286 293 303 314 319 311 305 305 301 296 287 274 296 307 315 323 330 336 338 343 350 352 353 358 1 1 359 359 1 5 11 11 3 354 354 359 2 360 354 344 338 337 337 340 345 350 352 350 347 342 339 337
237 238 239 240 242 245 246 244 244 244 244 245 246 247 250 251 249 249 251 256 260 264 268 270 271 272 274 276 278 282 285 286 287 286 287 291 297 303 306 306 307 306 300 293 286 297 307 313 321 327 332 336 339 344 347 347 351 356 358 358 359 3 9 8 0 357 359 8 12 7 358 349 344 348 351 350 353 355 353 349 346 343 340 337 337
239 240 241 243 244 246 246 246 246 246 246 246 246 247 249 249 249 248 249 252 256 261 264 267 270 273 276 278 278 280 282 283 284 285 287 288 288 290 294 298 302 305 302 298 295 295 303 310 317 323 328 332 334 338 342 343 345 350 353 355 358 3 6 359 356 6 21 22 16 4 355 354 359 6 5 359 356 353 347 344 342 339 337 337 338
240 242 243 245 245 246 246 247 247 247 248 247 246 246 248 249 250 251 252 254 256 258 261 265 270 273 275 277 278 279 280 280 280 281 284 287 286 285 286 289 294 299 301 300 297 292 297 306 312 318 323 327 329 333 337 338 341 345 349 352 357 360 1 359 3 23 33 25 16 1 357 5 13 14 7 358 353 347 343 341 339 337 338 340 342
240 243 245 245 245 245 246 247 247 247 247 247 246 246 247 250 252 255 256 258 259 260 262 265 269 272 273 275 276 277 279 279 278 279 280 283 285 283 281 283 287 291 294 296 296 294 293 299 306 312 318 321 323 328 331 334 338 343 347 351 355 360 4 8 15 32 35 27 14 359 2 11 12 8 360 352 349 344 340 338 338 340 342 344 345
239 243 244 244 243 244 245 247 247 247 247 247 247 247 248 251 253 257 259 260 261 262 264 266 268 269 271 273 275 275 275 275 275 277 278 279 282 282 279 279 282 286 289 291 294 295 292 294 301 307 311 315 318 322 328 332 335 340 346 351 356 3 6 14 29 39 32 26 13 0 3 9 6 360 353 348 345 341 338 340 342 345 347 349 351
237 239 241 242 243 243 245 247 247 248 249 248 248 249 250 252 254 257 259 259 262 263 265 267 267 267 269 271 274 274 272 273 273 274 275 276 277 279 279 279 282 283 284 285 288 291 292 294 298 302 306 311 314 318 325 329 330 335 342 348 355 4 5 7 21 34 30 21 13 5 2 3 360 352 347 345 342 339 340 342 345 349 352 354 357
235 237 238 240 242 243 245 246 247 248 249 248 249 250 251 252 254 257 258 259 261 262 264 266 267 267 267 269 272 272 271 271 272 273 274 274 273 275 277 280 283 284 283 282 283 284 288 291 294 297 300 305 308 312 319 325 328 333 340 343 348 357 2 0 4 12 20 17 13 9 2 358 352 345 343 341 339 340 342 344 348 353 356 359 1
233 235 236 238 240 241 243 245 246 247 248 248 248 249 250 252 254 256 258 259 260 261 263 264 265 266 267 268 269 271 272 272 273 274 274 274 273 272 273 276 281 284 284 284 284 283 285 286 288 292 295 298 302 307 315 321 326 332 337 338 339 344 350 353 355 358 2 8 10 8 358 347 342 340 339 338 339 343 345 347 352 355 358 1 4
232 233 235 237 238 239 241 243 244 245 245 246 248 249 250 252 253 255 257 258 260 260 261 262 263 264 265 267 268 270 272 274 275 275 274 273 273 272 272 274 276 279 281 283 284 283 284 284 285 289 291 293 299 304 310 316 319 323 329 332 335 338 341 344 349 353 352 354 359 0 350 334 333 333 334 336 339 344 346 349 354 357 359 2 5
231 232 233 234 235 237 239 240 242 243 244 246 248 250 251 252 253 254 255 257 258 259 260 260 261 263 264 266 268 270 271 272 274 275 274 273 273 272 273 273 273 274 275 278 280 280 280 279 281 285 286 288 296 300 304 309 312 316 321 327 332 336 338 339 342 345 345 344 347 352 343 325 325 328 330 333 338 342 346 349 355 357 358 1 5
231 231 232 232 234 236 237 238 240 241 243 246 248 250 251 252 252 252 253 255 256 256 257 258 259 262 263 265 267 268 269 269 271 273 274 274 273 273 274 273 272 271 271 272 275 276 275 274 277 281 279 282 292 297 299 304 307 310 315 320 326 331 335 334 329 329 333 335 336 340 334 317 318 323 325 329 333 337 342 349 355 356 357 0 5
231 231 232 233 234 235 236 237 239 241 243 246 248 249 251 251 251 251 251 252 252 253 254 255 258 260 261 263 265 266 267 268 269 271 272 273 273 273 274 274 272 270 269 268 269 271 272 271 273 277 277 280 288 294 298 301 303 304 305 308 315 322 323 314 305 310 322 326 327 329 323 307 308 315 320 322 325 331 338 344 351 354 355 360 4
230 231 232 234 235 235 235 236 238 241 243 245 246 247 249 250 250 249 248 248 249 250 251 253 256 257 258 260 262 264 266 267 267 268 269 271 272 272 273 273 271 270 269 267 267 268 269 269 268 272 277 280 283 292 299 299 296 295 294 297 304 309 307 301 297 303 313 318 319 318 310 296 296 306 312 314 317 323 330 338 345 349 354 0 4
227 230 232 233 235 235 236 237 239 241 243 244 245 246 247 249 249 248 246 246 247 248 250 251 253 255 256 257 258 261 264 265 265 266 267 269 270 270 270 271 272 272 271 270 269 268 268 268 267 271 279 282 283 292 301 298 293 291 289 290 295 297 296 296 298 301 305 309 309 304 295 290 291 298 303 305 309 312 319 331 339 345 352 1 6
228 230 231 233 234 236 237 238 239 241 244 245 244 245 245 247 247 246 245 244 244 246 248 249 250 252 254 255 256 259 261 263 264 264 265 266 266 267 268 270 272 274 273 273 273 273 272 272 272 275 281 286 288 293 299 298 295 293 290 287 288 290 291 294 297 299 300 300 297 280 272 281 288 290 293 298 299 298 305 322 331 338 350 1 7
229 231 232 233 235 236 237 238 239 242 246 246 245 244 245 245 244 243 243 242 242 243 245 247 248 250 252 253 253 256 258 261 263 264 264 263 262 262 264 268 271 272 274 275 275 275 275 275 277 280 283 286 288 290 293 294 293 290 287 283 281 283 285 286 291 295 296 296 287 266 262 276 283 282 285 293 292 284 285 303 319 333 346 357 6
228 230 232 234 235 236 237 237 238 242 246 247 246 245 245 243 241 239 239 239 239 240 243 245 247 248 251 251 251 253 256 259 262 263 262 259 257 258 261 265 268 270 273 276 275 274 275 276 279 282 284 285 286 287 288 289 287 285 279 273 274 278 276 273 279 286 288 285 274 262 261 270 275 273 278 289 287 275 269 280 305 329 344 355 4
227 230 232 234 236 237 237 238 238 241 246 248 247 246 245 243 239 237 237 236 236 238 240 243 245 246 249 251 251 251 253 257 261 262 260 257 254 255 258 260 262 265 271 274 274 274 276 277 279 280 282 285 286 287 288 286 284 280 272 269 274 273 265 262 266 273 277 273 266 258 252 258 265 265 269 282 281 268 259 264 295 326 343 355 4
229 231 232 233 235 237 238 239 240 241 245 248 247 246 245 242 238 236 235 233 233 235 238 240 242 244 246 249 250 249 251 256 260 260 259 256 253 254 256 255 254 260 268 272 272 273 275 276 277 279 281 284 285 286 287 285 281 275 269 269 271 267 262 263 264 262 265 265 259 250 243 249 256 256 256 267 273 262 253 253 286 326 343 357 8